[[{"header":{"parameterUnit":"m.s-1","parameterCategory":1,"la1":30.2992,"la2":30.254,"lo1":-89.0895,"lo2":-89.0443,"dy":0.0025,"dx":0.0025,"nx":19,"ny":19,"refTime":"2026-04-07T21:00:00:Z","depth":0,"parameterNumber":2,"parameterNumberName":"U-component_of_WINDS"},"data":[0,0,0,-4.9681,-4.9687,-4.9924,-4.9925,-5.0284,-5.0288,0,0,0,0,0,0,0,0,0,0,0,-4.9642,-4.9645,-4.9681,-4.9688,-4.9924,-4.9925,-5.0284,-5.0288,0,0,0,0,0,0,0,0,0,0,0,-4.964,-4.9644,-4.9648,-4.9689,-4.9924,-4.9925,-5.0283,-5.0085,0,0,0,0,0,0,0,0,0,0,-4.9845,-4.9837,-4.9643,-4.9648,-4.969,-4.9924,-4.9925,-5.0074,-5.0097,-5.02,0,-5.0296,0,-5.0298,-5.0315,-5.0317,0,0,0,-4.9666,-4.9819,-4.9855,-4.9649,-4.9693,-4.9924,-4.9811,-5.0087,-5.0113,-5.023,-5.03,-5.0312,-5.0304,-5.0318,-5.032,-5.0977,-5.0981,0,0,-4.9653,-4.9702,-4.9837,-4.9873,-4.9836,-4.9804,-4.9819,-5.0101,-5.0182,-5.0302,-5.032,-5.031,-5.0321,-5.0324,-5.0973,-5.0978,0,0,0,-4.963,-4.9694,-4.9721,-4.986,-4.9898,-4.9811,-4.9829,-5.017,-5.0174,-5.0323,-5.0314,-5.0323,-5.0328,-5.0969,-5.0975,-5.1226,0,0,0,-4.9621,-4.968,-4.9717,-4.9749,-4.9894,-5.0036,-4.9892,-5.0155,-5.0185,-5.0312,-5.0323,-5.0332,-5.0964,-5.0972,-5.1209,-5.1339,0,0,0,-4.9616,-4.9678,-4.9723,-4.9751,-4.9854,-5.003,-5.005,-5.016,-5.0181,-5.0317,-5.0333,-5.0961,-5.097,-5.1194,-5.1314,-5.1529,0,0,0,-4.9625,-4.9943,-4.9728,-5.0078,-4.9853,-5.0181,-5.0048,-5.0291,-5.0437,-5.0325,-5.0965,-5.0974,-5.119,-5.1299,-5.1513,-5.1722,-5.1812,0,0,-5.0053,-4.9996,-5.0198,-5.0013,-5.0393,-5.0141,-5.0559,-5.0648,-5.0617,-5.086,-5.0875,-5.1215,-5.1312,-5.1526,-5.229,-5.2362,0,0,0,-5.0351,-5.0498,-5.0587,-5.0728,-5.0801,-5.0877,-5.0895,-5.0929,-5.1132,-5.075,-5.1346,-5.1403,-5.1526,-5.1624,-5.1685,-5.1791,-5.102,-5.1019,-5.1018,-5.103,-5.0971,-5.1304,-5.1275,-5.1413,-5.1429,-5.1537,-5.1585,-5.1487,-5.1629,-5.1703,-5.2173,-5.2289,-5.2335,-5.2445,-5.1803,-5.1804,-5.1805,-5.1806,-5.1656,-5.1857,-5.1716,-5.1989,-5.1927,-5.2157,-5.2186,-5.2108,-5.2316,-5.2112,-5.2218,-5.2006,-5.2416,-5.2509,-5.1824,-5.1821,-5.1818,-5.1817,-5.1815,-5.21,-5.2186,-5.2218,-5.2415,-5.2575,-5.2533,-5.274,-5.2674,-5.2615,-5.2719,-5.2793,-5.2789,-5.2781,-5.2757,-5.2759,-5.2761,-5.2762,-5.2763,-5.2764,-5.2549,-5.2577,-5.2757,-5.2861,-5.2943,-5.3044,-5.3062,-5.3143,-5.3217,-5.3154,-5.3154,-5.3046,-5.2463,-5.2322,-5.279,-5.2785,-5.2782,-5.278,-5.2778,-5.3215,-5.3054,-5.3332,-5.3415,-5.3533,-5.3698,-5.361,-5.378,-5.3837,-5.3942,-5.3809,-5.3387,-5.3326,-5.3277,-5.316,-5.3817,-5.3817,-5.3817,-5.3817,-5.3594,-5.3553,-5.3825,-5.3961,-5.4087,-5.4036,-5.4358,-5.4377,-5.4371,-5.4404,-5.4298,-5.4135,-5.4088,-5.4054,-5.3989,-5.3879,-5.4704,-5.4705,-5.4705,-5.4003,-5.3972,-5.4257,-5.4245,-5.4333,-5.4411,-5.4713,-5.488,-5.4839,-5.474,-5.443,-5.4392,-5.4128,-5.4044,-5.3944,-5.3843,-5.3639,0,0]},{"header":{"parameterUnit":"m.s-1","parameterCategory":1,"la1":30.2992,"la2":30.254,"lo1":-89.0895,"lo2":-89.0443,"dy":0.0025,"dx":0.0025,"nx":19,"ny":19,"refTime":"2026-04-07T21:00:00:Z","depth":0,"parameterNumber":3,"parameterNumberName":"V-component_of_WINDS"},"data":[0,0,0,-1.8598,-1.8598,-1.8599,-1.8599,-1.8596,-1.8596,0,0,0,0,0,0,0,0,0,0,0,-1.8597,-1.8597,-1.8598,-1.8598,-1.8599,-1.8599,-1.8596,-1.8596,0,0,0,0,0,0,0,0,0,0,0,-1.8597,-1.8597,-1.8597,-1.8598,-1.8599,-1.8599,-1.8596,-1.8597,0,0,0,0,0,0,0,0,0,0,-1.8596,-1.8595,-1.8597,-1.8597,-1.8598,-1.8599,-1.8599,-1.8597,-1.8597,-1.8595,0,-1.8594,0,-1.8595,-1.8596,-1.8596,0,0,0,-1.8599,-1.8596,-1.8596,-1.8597,-1.8598,-1.8599,-1.8599,-1.8597,-1.8597,-1.8594,-1.8594,-1.8594,-1.8595,-1.8596,-1.8596,-1.8586,-1.8586,0,0,-1.8598,-1.8597,-1.8596,-1.8596,-1.8598,-1.8599,-1.8599,-1.8597,-1.8596,-1.8594,-1.8594,-1.8595,-1.8596,-1.8596,-1.8586,-1.8586,0,0,0,-1.8598,-1.8597,-1.8598,-1.8596,-1.8597,-1.8599,-1.8599,-1.8596,-1.8596,-1.8594,-1.8595,-1.8596,-1.8596,-1.8586,-1.8586,-1.8581,0,0,0,-1.8598,-1.8597,-1.8598,-1.8597,-1.8597,-1.8597,-1.8598,-1.8596,-1.8596,-1.8595,-1.8596,-1.8596,-1.8586,-1.8586,-1.8581,-1.8579,0,0,0,-1.8597,-1.8597,-1.8597,-1.8597,-1.8597,-1.8597,-1.8597,-1.8596,-1.8597,-1.8596,-1.8596,-1.8586,-1.8586,-1.8582,-1.8579,-1.8575,0,0,0,-1.8596,-1.8593,-1.8597,-1.8593,-1.8597,-1.8595,-1.8597,-1.8595,-1.8594,-1.8596,-1.8586,-1.8586,-1.8582,-1.858,-1.8575,-1.857,-1.8568,0,0,-1.8592,-1.8593,-1.8591,-1.8594,-1.859,-1.8594,-1.8589,-1.8589,-1.859,-1.8587,-1.8586,-1.8581,-1.8579,-1.8575,-1.8559,-1.8558,0,0,0,-1.8589,-1.8587,-1.8587,-1.8586,-1.8586,-1.8584,-1.8585,-1.8585,-1.8582,-1.8589,-1.8579,-1.8578,-1.8575,-1.8573,-1.8571,-1.8568,-1.8585,-1.8585,-1.8585,-1.8581,-1.8582,-1.8578,-1.8578,-1.8577,-1.8577,-1.8575,-1.8574,-1.8576,-1.8573,-1.8572,-1.8563,-1.856,-1.8559,-1.8556,-1.857,-1.857,-1.857,-1.857,-1.8573,-1.8571,-1.8572,-1.8569,-1.8569,-1.8565,-1.8564,-1.8565,-1.856,-1.8564,-1.8562,-1.8566,-1.8558,-1.8554,-1.857,-1.857,-1.857,-1.857,-1.857,-1.8567,-1.8566,-1.8566,-1.8562,-1.8559,-1.8559,-1.8554,-1.8555,-1.8555,-1.8553,-1.855,-1.855,-1.8549,-1.8551,-1.8551,-1.8551,-1.8551,-1.8551,-1.8551,-1.8562,-1.8561,-1.8558,-1.8556,-1.8553,-1.8551,-1.8548,-1.8546,-1.8543,-1.8543,-1.8543,-1.8544,-1.8557,-1.856,-1.8551,-1.8551,-1.8551,-1.8551,-1.8551,-1.8553,-1.8554,-1.8549,-1.8547,-1.8543,-1.8538,-1.8538,-1.8532,-1.853,-1.8527,-1.8528,-1.8538,-1.8539,-1.854,-1.8542,-1.8529,-1.8529,-1.8529,-1.8529,-1.8548,-1.8548,-1.8541,-1.8537,-1.8533,-1.8532,-1.8523,-1.852,-1.8517,-1.8515,-1.8517,-1.852,-1.8521,-1.8521,-1.8522,-1.8524,-1.8507,-1.8507,-1.8507,-1.8541,-1.8541,-1.8535,-1.8532,-1.8528,-1.8524,-1.8515,-1.8508,-1.8505,-1.8506,-1.8513,-1.8514,-1.8519,-1.852,-1.8522,-1.8524,-1.8527,0,0]}]]